When you browse on this site, cookies collect data to enhance your experience and personalize the content and advertising you see.
Visit our Privacy Policy to learn more. By continuing to use the site, you agree to this use of cookies and data.
  • In Romania
  • List of Countries
  • For 7 days
  • Water Temperature
  • Satellite Maps
  • Weather Map
  • Weather Widgets
  • user-avatar
    Login

    Hourly Weather San Cristóbal

    Today, 20 April, Saturday

    Time Temperature Precipitation Wind Pressure Humidity
    00:00 +22°C° 0.9 mm 1 mps 672 mmHg 81%
    01:00 +22°C° 0.9 mm 1 mps 672 mmHg 80%
    02:00 +22°C° 0.9 mm 1 mps 672 mmHg 80%
    03:00 +22°C° 0.9 mm 1 mps 672 mmHg 80%
    04:00 +22°C° 0.9 mm 1 mps 672 mmHg 81%
    05:00 +22°C° 1.6 mm 1 mps 672 mmHg 82%
    06:00 +22°C° 1.6 mm 1 mps 672 mmHg 82%
    07:00 +22°C° 1.6 mm 1 mps 673 mmHg 83%
    08:00 +22°C° 2.3 mm 1 mps 673 mmHg 83%
    09:00 +23°C° 2.3 mm 1 mps 674 mmHg 82%
    10:00 +23°C° 2.3 mm 1 mps 674 mmHg 81%
    11:00 +23°C° 1.6 mm 1 mps 674 mmHg 80%
    12:00 +24°C° 1.6 mm 1 mps 673 mmHg 78%
    13:00 +24°C° 1.6 mm 1 mps 673 mmHg 76%
    14:00 +24°C° 1.1 mm 1 mps 672 mmHg 76%
    15:00 +24°C° 1.1 mm 1 mps 671 mmHg 76%
    16:00 +24°C° 1.1 mm 1 mps 671 mmHg 76%
    17:00 +23°C° 1.2 mm 1 mps 671 mmHg 80%
    18:00 +23°C° 1.2 mm 1 mps 671 mmHg 83%
    19:00 +22°C° 1.2 mm 1 mps 671 mmHg 86%
    20:00 +22°C° 1.5 mm 1 mps 672 mmHg 86%
    21:00 +22°C° 1.5 mm 1 mps 672 mmHg 87%
    22:00 +22°C° 1.5 mm 1 mps 673 mmHg 87%
    23:00 +22°C° 1.7 mm 1 mps 673 mmHg 88%

    Tomorrow, 21 April, Sunday

    Time Temperature Precipitation Wind Pressure Humidity
    00:00 +21°C° 1.7 mm 1 mps 672 mmHg 89%
    01:00 +21°C° 1.7 mm 1 mps 672 mmHg 89%
    02:00 +21°C° 1.6 mm 1 mps 672 mmHg 89%
    03:00 +19°C° 1.6 mm 0 mps 671 mmHg 89%
    04:00 +19°C° 1.6 mm 0 mps 671 mmHg 89%
    05:00 +19°C° 2.1 mm 0 mps 672 mmHg 89%
    06:00 +19°C° 2.1 mm 0 mps 672 mmHg 89%
    07:00 +19°C° 2.1 mm 0 mps 673 mmHg 88%
    08:00 +20°C° 2.1 mm 0 mps 673 mmHg 87%
    09:00 +20°C° 2.1 mm 0 mps 674 mmHg 85%
    10:00 +23°C° 2.1 mm 1 mps 674 mmHg 84%
    11:00 +24°C° 0.8 mm 1 mps 674 mmHg 78%
    12:00 +26°C° 0.8 mm 1 mps 673 mmHg 71%
    13:00 +27°C° 0.8 mm 1 mps 673 mmHg 65%
    14:00 +27°C° 0.7 mm 1 mps 672 mmHg 64%
    15:00 +25°C° 0.7 mm 0 mps 672 mmHg 64%
    16:00 +25°C° 0.7 mm 0 mps 671 mmHg 63%
    17:00 +23°C° 0.8 mm 0 mps 671 mmHg 68%
    18:00 +22°C° 0.8 mm 0 mps 671 mmHg 73%
    19:00 +21°C° 0.8 mm 0 mps 671 mmHg 79%
    20:00 +20°C° 0.6 mm 0 mps 672 mmHg 80%
    21:00 +20°C° 0.6 mm 0 mps 672 mmHg 81%
    22:00 +20°C° 0.6 mm 0 mps 673 mmHg 81%
    23:00 +20°C° 0.6 mm 0 mps 672 mmHg 82%

    Day after tomorrow, 22 April, Monday

    Time Temperature Precipitation Wind Pressure Humidity
    00:00 +20°C° 0.6 mm 0 mps 672 mmHg 82%
    01:00 +19°C° 0.6 mm 0 mps 671 mmHg 83%
    02:00 +19°C° 0.8 mm 0 mps 671 mmHg 83%
    03:00 +19°C° 0.8 mm 0 mps 671 mmHg 83%
    04:00 +19°C° 0.8 mm 0 mps 671 mmHg 83%
    05:00 +19°C° 0.9 mm 0 mps 671 mmHg 82%
    06:00 +20°C° 0.9 mm 0 mps 672 mmHg 81%
    07:00 +20°C° 0.9 mm 0 mps 672 mmHg 80%
    08:00 +21°C° 1.3 mm 0 mps 673 mmHg 77%
    09:00 +21°C° 1.3 mm 0 mps 673 mmHg 75%
    10:00 +22°C° 1.3 mm 0 mps 674 mmHg 73%
    11:00 +22°C° 1.3 mm 0 mps 673 mmHg 73%
    12:00 +23°C° 1.3 mm 0 mps 672 mmHg 72%
    13:00 +23°C° 1.3 mm 0 mps 672 mmHg 72%
    14:00 +23°C° 0.9 mm 0 mps 671 mmHg 72%
    15:00 +23°C° 0.9 mm 0 mps 670 mmHg 72%
    16:00 +22°C° 0.9 mm 0 mps 670 mmHg 73%
    17:00 +22°C° 0.7 mm 0 mps 670 mmHg 76%
    18:00 +21°C° 0.7 mm 0 mps 671 mmHg 79%
    19:00 +20°C° 0.7 mm 0 mps 671 mmHg 82%
    20:00 +20°C° 0.5 mm 0 mps 671 mmHg 83%
    21:00 +20°C° 0.5 mm 0 mps 672 mmHg 84%
    22:00 +20°C° 0.5 mm 0 mps 672 mmHg 85%
    23:00 +19°C° 0.4 mm 0 mps 672 mmHg 85%

    23 April, Tuesday

    Time Temperature Precipitation Wind Pressure Humidity
    00:00 +19°C° 0.4 mm 0 mps 671 mmHg 86%
    01:00 +19°C° 0.4 mm 0 mps 671 mmHg 86%
    02:00 +19°C° 0.3 mm 0 mps 671 mmHg 87%
    03:00 +19°C° 0.3 mm 0 mps 670 mmHg 87%
    04:00 +19°C° 0.3 mm 0 mps 670 mmHg 88%
    05:00 +19°C° 0.3 mm 0 mps 671 mmHg 85%
    06:00 +20°C° 0.3 mm 0 mps 672 mmHg 82%
    07:00 +21°C° 0.3 mm 0 mps 672 mmHg 80%
    08:00 +23°C° 0.4 mm 0 mps 673 mmHg 72%
    09:00 +24°C° 0.4 mm 0 mps 674 mmHg 64%
    10:00 +28°C° 0.4 mm 1 mps 674 mmHg 55%
    11:00 +28°C° 0.7 mm 1 mps 673 mmHg 55%
    12:00 +29°C° 0.7 mm 1 mps 673 mmHg 55%
    13:00 +29°C° 0.7 mm 1 mps 672 mmHg 54%
    14:00 +28°C° 0.9 mm 1 mps 672 mmHg 57%
    15:00 +28°C° 0.9 mm 1 mps 671 mmHg 59%
    16:00 +27°C° 0.9 mm 1 mps 671 mmHg 61%
    17:00 +24°C° 0.7 mm 0 mps 671 mmHg 68%
    18:00 +22°C° 0.7 mm 0 mps 671 mmHg 74%
    19:00 +21°C° 0.7 mm 0 mps 671 mmHg 81%
    20:00 +20°C° 0.8 mm 0 mps 671 mmHg 82%
    21:00 +20°C° 0.8 mm 0 mps 672 mmHg 84%
    22:00 +20°C° 0.8 mm 0 mps 672 mmHg 86%
    23:00 +20°C° 1 mm 0 mps 672 mmHg 86%

    24 April, Wednesday

    Time Temperature Precipitation Wind Pressure Humidity
    00:00 +20°C° 1 mm 0 mps 671 mmHg 86%
    01:00 +19°C° 1 mm 0 mps 671 mmHg 86%
    02:00 +19°C° 0.8 mm 0 mps 671 mmHg 87%
    03:00 +19°C° 0.8 mm 0 mps 671 mmHg 88%
    04:00 +19°C° 0.8 mm 0 mps 671 mmHg 89%
    05:00 +19°C° 0.8 mm 0 mps 671 mmHg 87%
    06:00 +20°C° 0.8 mm 0 mps 672 mmHg 84%
    07:00 +21°C° 0.8 mm 0 mps 673 mmHg 81%
    08:00 +21°C° 1.1 mm 0 mps 673 mmHg 78%
    09:00 +22°C° 1.1 mm 0 mps 673 mmHg 75%
    10:00 +24°C° 1.1 mm 1 mps 673 mmHg 73%
    11:00 +25°C° 1.1 mm 1 mps 673 mmHg 70%
    12:00 +23°C° 1.1 mm 0 mps 672 mmHg 67%
    13:00 +24°C° 1.1 mm 0 mps 671 mmHg 64%
    14:00 +24°C° 0.7 mm 0 mps 671 mmHg 63%
    15:00 +24°C° 0.7 mm 0 mps 671 mmHg 62%
    16:00 +24°C° 0.7 mm 0 mps 670 mmHg 61%
    17:00 +23°C° 0.4 mm 0 mps 671 mmHg 65%
    18:00 +21°C° 0.4 mm 0 mps 671 mmHg 69%
    19:00 +22°C° 0.4 mm 1 mps 671 mmHg 73%
    20:00 +22°C° 0.4 mm 1 mps 671 mmHg 74%
    21:00 +22°C° 0.4 mm 1 mps 672 mmHg 75%
    22:00 +22°C° 0.4 mm 1 mps 672 mmHg 75%
    23:00 +21°C° 0.4 mm 1 mps 672 mmHg 75%

    25 April, Thursday

    Time Temperature Precipitation Wind Pressure Humidity
    00:00 +21°C° 0.4 mm 1 mps 671 mmHg 75%
    01:00 +21°C° 0.4 mm 1 mps 671 mmHg 76%
    02:00 +21°C° 0.3 mm 1 mps 671 mmHg 76%
    03:00 +21°C° 0.3 mm 1 mps 671 mmHg 75%
    04:00 +21°C° 0.3 mm 1 mps 671 mmHg 75%
    05:00 +21°C° 0.5 mm 1 mps 671 mmHg 73%
    06:00 +22°C° 0.5 mm 1 mps 672 mmHg 70%
    07:00 +23°C° 0.5 mm 1 mps 673 mmHg 68%
    08:00 +24°C° 0.6 mm 1 mps 673 mmHg 66%
    09:00 +25°C° 0.6 mm 1 mps 673 mmHg 64%
    10:00 +26°C° 0.6 mm 1 mps 674 mmHg 62%
    11:00 +26°C° 0.7 mm 1 mps 673 mmHg 61%
    12:00 +27°C° 0.7 mm 1 mps 673 mmHg 60%
    13:00 +27°C° 0.7 mm 1 mps 672 mmHg 60%
    14:00 +27°C° 0.7 mm 1 mps 672 mmHg 61%
    15:00 +26°C° 0.7 mm 1 mps 671 mmHg 62%
    16:00 +26°C° 0.7 mm 1 mps 671 mmHg 64%
    17:00 +25°C° 0.5 mm 1 mps 671 mmHg 68%
    18:00 +24°C° 0.5 mm 1 mps 671 mmHg 73%
    19:00 +23°C° 0.5 mm 1 mps 672 mmHg 78%
    20:00 +22°C° 0.5 mm 1 mps 672 mmHg 78%
    21:00 +22°C° 0.5 mm 1 mps 672 mmHg 79%
    22:00 +22°C° 0.5 mm 1 mps 673 mmHg 79%
    23:00 +22°C° 0.6 mm 1 mps 672 mmHg 80%
    Show more